Wind_Speed
18 17 19 38 43 42 32 27 20 22 22 20 16 14 14 14 13 12 11 11 11 11 12 13 13 13 13 13 13 12 13 12 16 15 18 19 20 20 21 21 21 22 23 26 25
11 14 17 23 41 37 42 35 14 16 21 22 15 14 12 13 13 12 10 11 10 10 11 12 13 13 13 13 14 15 17 17 21 21 21 23 21 25 25 25 26 25 25 25 26
9 8 10 14 11 39 45 36 25 13 18 25 22 15 13 10 11 12 12 11 11 10 10 11 13 13 13 14 15 16 19 19 20 21 22 23 27 30 30 33 29 31 30 29 30
8 9 11 8 6 26 32 33 29 24 15 17 19 16 11 9 7 7 10 12 12 11 11 11 11 12 12 13 14 16 17 19 19 21 22 23 25 28 32 29 29 31 32 32 31
10 11 17 18 8 27 30 35 32 34 20 20 19 13 9 8 9 9 8 7 7 8 8 9 10 11 11 10 12 13 14 16 17 16 18 21 17 24 26 23 25 26 28 29 30
10 6 15 14 10 26 38 40 31 21 17 24 26 13 9 9 7 5 4 4 4 5 6 6 7 8 8 9 10 11 13 15 16 17 22 26 24 29 23 27 29 31 32 33 34
16 14 8 8 8 32 38 37 34 24 17 22 19 13 7 3 6 4 2 2 2 2 4 5 6 6 6 9 10 12 15 18 19 21 24 25 30 26 22 22 23 27 31 35 37
10 8 7 9 18 26 31 33 33 28 23 17 12 7 3 4 5 4 2 1 1 2 3 5 5 6 8 10 14 15 17 13 15 17 25 24 27 25 14 20 25 28 29 29 28
11 10 11 20 29 27 33 36 31 30 21 13 8 9 6 6 6 5 3 2 2 2 4 5 6 7 9 11 13 11 9 15 18 16 21 22 26 15 18 22 27 22 24 26 26
13 13 22 21 36 34 34 35 29 25 15 13 6 6 8 8 6 4 2 0 2 3 5 5 5 6 8 7 6 9 13 16 16 17 23 23 28 23 19 25 26 23 22 23 24
17 17 23 29 41 44 37 30 29 23 16 10 11 8 10 8 5 3 2 2 2 3 3 2 2 3 6 7 9 12 15 17 15 20 25 21 32 28 23 15 20 25 26 26 25
26 23 33 30 32 36 26 31 26 26 25 19 16 11 10 7 6 5 5 6 7 7 5 3 2 3 5 7 10 13 17 15 16 13 25 25 28 8 7 13 16 25 28 27 23
31 33 28 30 30 34 28 24 22 21 25 20 15 12 11 10 9 8 7 7 5 5 4 3 3 5 8 11 13 14 10 11 16 22 17 18 13 5 10 11 25 28 27 27 25
34 36 36 37 35 31 31 28 23 16 14 11 9 9 10 11 10 9 6 3 3 2 2 2 5 5 8 10 10 9 12 14 17 16 8 12 9 9 8 15 24 20 20 14 15
24 27 29 36 38 30 25 18 14 7 4 5 10 10 9 8 6 5 3 2 4 2 2 2 3 4 8 10 11 8 16 18 17 15 15 3 6 7 18 25 30 18 18 12 19
22 24 29 32 24 18 11 10 7 4 5 5 7 8 8 7 7 4 6 5 4 4 2 3 5 5 9 12 10 12 15 11 4 5 5 3 5 6 22 35 31 15 17 16 26
19 22 23 18 13 10 7 6 4 6 10 7 7 6 6 4 4 6 8 9 9 3 7 3 3 7 8 12 8 12 15 4 2 3 3 10 5 10 25 27 21 17 12 9 5
15 14 11 8 9 8 4 5 7 10 5 11 9 6 3 2 3 5 5 7 10 11 8 8 2 7 9 9 9 8 6 3 4 4 9 7 8 11 18 16 12 9 5 17 23
11 6 5 8 8 8 6 5 7 11 13 10 7 3 2 3 1 4 5 8 10 11 7 7 3 4 7 7 7 8 5 4 5 5 6 3 6 5 9 11 14 20 14 14 20
14 14 11 9 9 9 9 14 11 13 10 5 2 2 1 3 3 4 5 7 7 9 9 7 8 4 9 6 5 5 9 3 2 3 3 3 4 4 5 8 11 16 20 21 18
14 15 14 13 11 10 15 17 13 8 5 3 2 1 2 4 4 4 4 4 9 10 10 11 6 6 11 4 5 6 2 3 4 3 3 5 3 2 5 7 9 9 8 11 16
11 11 11 10 8 7 8 7 6 5 4 2 1 2 3 5 4 3 3 5 8 10 10 10 8 12 10 11 11 9 7 6 4 2 6 4 7 9 8 7 8 9 12 14 16
8 7 7 7 6 6 5 3 3 2 0 1 3 3 5 6 5 5 5 6 9 9 8 9 5 10 3 4 5 7 11 10 10 9 9 4 3 7 9 8 7 8 8 11 16
2 3 2 2 3 3 3 1 1 2 2 3 5 5 6 8 8 7 10 9 10 11 11 12 11 12 13 13 19 22 18 17 14 6 6 14 12 11 9 7 7 7 8 11 13
4 2 2 3 2 2 3 3 3 4 4 6 6 7 9 7 11 9 8 10 12 11 10 10 16 20 21 25 27 28 23 21 23 18 11 8 15 9 9 8 7 5 5 7 9
4 7 7 8 8 7 8 6 5 6 7 8 9 10 11 11 12 16 14 13 11 10 10 16 13 24 31 10 12 22 21 21 23 22 25 21 17 10 9 9 8 6 4 5 6
6 7 8 8 10 12 12 11 9 9 9 7 7 10 13 15 15 15 16 17 19 20 20 19 13 15 10 12 25 16 3 6 10 14 14 16 11 10 9 8 8 7 4 4 3
Wind_Direction
219 207 217 217 229 216 229 201 150 182 187 188 196 201 203 204 204 199 194 200 207 211 219 228 233 236 238 241 244 244 247 253 255 255 256 266 268 263 260 256 254 254 253 254 254
191 207 217 203 227 224 224 207 175 169 182 182 189 192 191 197 200 200 195 199 204 212 219 227 234 235 240 241 239 240 245 252 257 262 266 271 271 273 271 270 267 264 259 255 254
173 169 189 188 230 208 222 211 206 162 161 182 180 176 183 189 201 202 206 215 218 221 227 235 241 241 243 248 249 249 247 259 264 267 265 265 270 275 279 272 273 276 274 266 257
184 174 156 176 237 199 197 206 213 210 145 156 164 166 174 183 200 209 205 215 222 225 231 237 242 249 250 252 258 261 266 270 275 275 276 275 274 276 271 280 283 280 279 273 267
150 163 163 169 155 191 195 189 203 214 206 178 170 180 174 173 163 163 181 193 211 223 233 244 255 258 260 263 266 272 277 277 279 282 281 278 282 278 281 292 282 280 276 276 269
109 141 156 158 167 185 187 187 180 183 190 166 179 173 164 185 166 156 163 191 230 246 248 248 249 256 262 266 269 275 277 279 283 283 284 283 283 280 298 283 283 279 276 272 268
116 108 140 156 168 176 184 185 180 185 186 149 139 147 152 178 182 192 187 170 210 251 268 263 260 258 270 279 275 278 282 286 287 284 279 286 285 291 298 289 282 279 282 281 279
81 92 129 137 141 159 169 176 176 175 169 126 142 161 143 117 153 175 179 175 223 247 254 259 265 275 280 283 282 287 288 286 286 288 289 290 287 294 302 291 285 281 280 280 278
74 102 134 135 139 138 161 172 157 156 125 119 119 130 148 127 136 143 151 183 227 245 245 254 269 279 282 287 291 281 274 284 292 287 284 281 282 290 311 291 284 281 282 278 279
68 105 125 139 139 130 151 144 130 119 120 118 134 137 156 137 133 134 139 151 300 284 283 284 282 279 278 281 274 272 289 291 291 294 286 289 289 291 299 285 294 289 273 274 283
83 83 119 124 128 150 122 117 116 122 127 133 144 148 131 124 117 92 27 3 339 308 288 292 295 281 283 285 286 291 297 298 309 305 295 295 291 303 294 270 288 291 283 280 283
79 90 87 120 125 130 130 124 130 132 124 111 113 120 115 110 103 96 84 75 64 57 57 76 30 358 339 324 319 316 309 316 308 296 304 312 308 290 282 289 313 310 296 283 280
102 92 103 99 122 130 142 141 124 128 107 101 105 105 103 101 94 89 84 68 54 58 62 53 360 331 333 332 328 331 314 324 316 316 326 329 316 279 306 324 328 318 308 299 287
94 100 104 107 110 110 116 123 127 112 94 88 87 89 95 96 77 80 72 38 6 346 281 344 340 350 350 354 335 331 331 323 316 322 319 330 297 297 305 323 335 328 317 319 302
99 98 106 106 110 114 115 125 124 100 80 91 82 96 91 92 110 66 37 349 359 24 55 9 32 19 9 354 347 310 321 318 309 300 303 321 261 276 314 312 336 314 330 327 310
91 104 111 113 107 102 98 111 114 87 76 109 108 103 99 101 91 75 33 30 29 62 44 12 19 8 4 350 333 333 334 322 280 274 260 238 306 309 340 327 329 307 317 307 321
91 107 110 96 68 56 73 103 84 65 123 127 132 120 118 100 62 46 34 32 37 8 6 7 23 8 359 359 359 355 360 325 251 222 329 326 301 294 324 334 333 316 308 333 306
90 106 100 56 34 28 65 116 75 125 129 134 132 121 101 73 50 35 35 32 27 24 358 357 327 352 345 348 347 344 15 340 308 334 314 318 310 316 341 347 3 9 19 58 25
79 63 19 9 23 51 76 85 98 121 130 133 125 102 56 32 353 15 32 35 29 20 10 346 307 301 342 326 340 341 351 292 263 273 278 282 302 329 16 52 62 55 59 48 42
65 58 52 55 67 87 97 99 110 118 126 124 143 126 97 25 21 9 22 20 15 0 350 318 305 268 318 302 320 336 350 289 305 309 304 276 289 295 51 71 70 65 57 54 38
77 70 60 62 73 90 109 113 124 128 130 126 112 71 4 352 1 14 15 358 354 346 342 330 297 305 315 247 282 320 322 310 257 226 305 313 279 290 29 25 27 23 36 39 36
73 82 71 61 66 69 93 105 111 118 118 111 58 335 328 342 337 341 326 314 324 333 335 325 291 293 293 280 279 276 275 343 272 233 254 269 273 285 311 326 339 352 5 16 32
69 80 76 63 66 66 78 85 107 125 36 286 297 302 318 334 329 308 304 306 300 306 319 321 301 308 293 269 283 289 307 304 315 267 237 262 292 283 290 299 311 322 352 16 18
108 104 71 56 73 63 53 50 338 316 297 296 288 299 314 318 299 283 297 301 299 291 290 294 276 268 257 283 286 283 285 274 282 260 284 258 277 291 285 300 307 318 338 4 17
269 274 216 215 269 268 268 281 260 276 284 299 298 310 318 317 308 290 298 296 301 285 281 285 285 294 292 293 283 279 276 267 263 262 258 282 289 288 282 286 289 301 343 357 9
272 243 249 251 250 263 268 267 275 281 290 303 298 302 303 302 294 295 295 296 295 286 274 297 287 304 310 300 289 287 278 257 255 257 263 273 292 270 274 276 281 290 325 340 354
284 272 254 251 255 251 245 249 261 267 275 265 281 290 301 305 299 291 290 285 274 272 277 280 282 309 282 302 307 294 193 244 265 264 266 262 287 285 281 274 268 269 270 288 314
Height
3028 3033 3036 3041 3041 3053 3059 3066 3069 3079 3085 3090 3094 3097 3100 3104 3108 3110 3112 3115 3117 3118 3120 3122 3124 3124 3125 3127 3128 3129 3131 3131 3130 3131 3131 3130 3131 3131 3131 3130 3130 3132 3133 3133 3134
3026 3032 3036 3040 3043 3049 3057 3064 3068 3075 3082 3088 3092 3097 3100 3103 3106 3109 3112 3112 3115 3117 3119 3121 3123 3124 3125 3125 3126 3127 3128 3128 3129 3129 3129 3127 3127 3125 3127 3127 3127 3127 3127 3127 3129
3027 3032 3036 3039 3041 3044 3051 3062 3068 3073 3079 3084 3091 3096 3099 3103 3107 3108 3110 3112 3113 3116 3117 3119 3121 3121 3122 3123 3124 3124 3125 3124 3125 3125 3125 3125 3123 3121 3121 3120 3123 3122 3123 3122 3122
3026 3031 3035 3039 3040 3041 3051 3060 3069 3074 3078 3083 3091 3095 3099 3102 3108 3107 3108 3111 3113 3114 3116 3117 3119 3119 3120 3120 3121 3122 3122 3121 3121 3120 3120 3119 3119 3117 3114 3117 3118 3116 3115 3115 3116
3028 3031 3034 3038 3041 3044 3052 3060 3068 3074 3081 3086 3092 3097 3100 3104 3105 3107 3108 3110 3111 3112 3114 3114 3116 3117 3117 3119 3119 3118 3119 3118 3118 3117 3116 3114 3115 3111 3111 3113 3111 3110 3107 3106 3105
3030 3031 3035 3038 3041 3043 3051 3059 3069 3074 3082 3088 3092 3098 3101 3104 3105 3107 3108 3109 3110 3112 3112 3112 3114 3115 3115 3117 3117 3116 3116 3116 3115 3114 3111 3108 3108 3105 3111 3107 3104 3101 3099 3097 3096
3032 3034 3036 3038 3040 3044 3052 3060 3072 3077 3085 3089 3094 3099 3102 3104 3105 3107 3107 3108 3109 3110 3111 3113 3113 3114 3114 3114 3114 3113 3114 3112 3111 3109 3106 3103 3101 3101 3101 3098 3096 3093 3092 3091 3090
3035 3036 3037 3038 3040 3046 3055 3065 3073 3081 3087 3092 3095 3100 3102 3103 3105 3106 3107 3108 3108 3108 3110 3111 3111 3112 3112 3113 3112 3111 3110 3109 3106 3105 3102 3101 3096 3095 3095 3092 3089 3087 3084 3083 3082
3038 3037 3037 3040 3046 3051 3059 3067 3076 3086 3090 3094 3099 3101 3103 3104 3105 3105 3107 3108 3108 3109 3109 3110 3110 3110 3110 3110 3110 3109 3108 3106 3104 3101 3097 3096 3090 3091 3091 3087 3082 3081 3078 3075 3073
3040 3038 3040 3042 3049 3055 3059 3069 3078 3086 3091 3095 3100 3104 3103 3104 3104 3106 3107 3107 3108 3108 3108 3109 3108 3107 3107 3107 3108 3105 3104 3101 3099 3097 3094 3092 3085 3086 3086 3081 3076 3072 3071 3069 3067
3046 3044 3047 3050 3051 3056 3065 3072 3082 3091 3093 3096 3100 3101 3102 3104 3105 3106 3107 3108 3107 3107 3106 3106 3106 3105 3105 3103 3103 3102 3101 3099 3098 3095 3089 3088 3082 3082 3078 3075 3071 3068 3065 3062 3059
3052 3053 3056 3058 3064 3068 3075 3080 3087 3092 3094 3098 3100 3103 3104 3105 3106 3107 3108 3108 3107 3106 3105 3106 3105 3104 3104 3103 3102 3100 3098 3097 3095 3093 3089 3083 3075 3073 3072 3071 3068 3063 3059 3055 3052
3063 3063 3065 3070 3074 3077 3084 3089 3093 3095 3096 3101 3103 3105 3106 3108 3108 3109 3109 3108 3107 3106 3106 3106 3106 3104 3104 3102 3101 3099 3097 3097 3095 3090 3085 3080 3072 3071 3069 3068 3064 3058 3051 3047 3043
3073 3073 3074 3076 3083 3085 3090 3094 3097 3098 3101 3108 3107 3108 3109 3110 3110 3110 3110 3111 3109 3108 3107 3107 3105 3104 3104 3102 3101 3097 3097 3095 3092 3089 3087 3084 3077 3069 3066 3065 3060 3053 3048 3043 3041
3084 3083 3084 3085 3087 3094 3097 3099 3099 3100 3103 3112 3110 3111 3111 3112 3113 3112 3111 3111 3109 3108 3109 3108 3105 3104 3103 3101 3099 3099 3095 3091 3089 3087 3086 3082 3080 3067 3063 3058 3054 3049 3044 3039 3036
3093 3093 3093 3093 3096 3099 3099 3100 3101 3104 3109 3112 3112 3113 3114 3113 3113 3113 3112 3112 3110 3108 3107 3106 3105 3104 3103 3100 3098 3096 3092 3087 3087 3087 3085 3080 3079 3066 3061 3055 3049 3045 3042 3037 3033
3101 3100 3099 3100 3101 3101 3101 3102 3103 3103 3113 3115 3115 3115 3115 3115 3115 3114 3113 3111 3110 3109 3106 3105 3104 3103 3102 3099 3096 3095 3091 3088 3086 3084 3079 3078 3076 3069 3062 3055 3048 3044 3040 3035 3028
3107 3107 3105 3105 3104 3103 3102 3104 3104 3110 3112 3115 3116 3116 3117 3116 3116 3114 3114 3112 3110 3108 3105 3104 3104 3102 3101 3100 3098 3095 3094 3093 3088 3082 3081 3077 3075 3069 3063 3056 3051 3046 3041 3037 3029
3110 3111 3111 3108 3106 3105 3106 3105 3109 3112 3115 3116 3117 3118 3117 3116 3115 3114 3113 3111 3110 3108 3108 3105 3103 3101 3100 3098 3098 3095 3095 3093 3090 3086 3083 3077 3073 3068 3063 3058 3054 3049 3043 3039 3035
3112 3113 3113 3112 3110 3109 3110 3109 3112 3115 3117 3118 3118 3117 3117 3116 3115 3113 3112 3112 3110 3109 3108 3106 3102 3100 3099 3098 3096 3095 3094 3092 3090 3085 3078 3072 3071 3068 3063 3059 3055 3051 3047 3042 3038
3115 3116 3116 3116 3115 3115 3114 3114 3116 3117 3118 3119 3118 3117 3117 3116 3115 3113 3114 3113 3110 3109 3107 3106 3104 3101 3098 3096 3095 3094 3092 3090 3089 3086 3081 3074 3069 3065 3063 3059 3057 3052 3049 3045 3039
3117 3117 3117 3117 3119 3118 3117 3118 3118 3119 3118 3118 3117 3117 3117 3116 3115 3114 3114 3113 3111 3109 3107 3106 3103 3098 3097 3094 3093 3092 3091 3089 3088 3086 3082 3079 3070 3064 3061 3059 3056 3052 3049 3044 3041
3118 3118 3118 3118 3118 3118 3119 3119 3119 3119 3119 3119 3118 3117 3117 3116 3117 3114 3113 3112 3110 3109 3107 3105 3102 3099 3095 3095 3091 3089 3087 3086 3085 3083 3078 3076 3066 3063 3061 3058 3055 3051 3048 3045 3041
3118 3118 3118 3118 3118 3118 3117 3118 3119 3119 3119 3118 3117 3116 3115 3115 3114 3112 3111 3109 3108 3107 3105 3104 3099 3098 3095 3091 3089 3085 3082 3081 3081 3080 3075 3069 3064 3061 3059 3058 3056 3053 3049 3046 3044
3118 3118 3117 3117 3118 3118 3118 3117 3116 3116 3116 3115 3115 3115 3115 3113 3111 3109 3108 3107 3105 3104 3103 3101 3095 3092 3087 3084 3081 3077 3076 3075 3072 3072 3071 3064 3061 3060 3058 3057 3055 3054 3050 3047 3045
3117 3116 3116 3115 3115 3116 3117 3116 3115 3115 3115 3116 3114 3113 3112 3111 3110 3107 3105 3104 3102 3101 3100 3098 3093 3088 3078 3075 3074 3069 3068 3067 3066 3065 3061 3060 3056 3056 3056 3055 3053 3051 3049 3047 3045
3115 3114 3114 3113 3112 3112 3111 3113 3114 3113 3112 3110 3110 3110 3109 3108 3105 3103 3101 3099 3097 3096 3095 3093 3090 3088 3077 3074 3069 3063 3060 3060 3059 3058 3058 3056 3056 3054 3053 3052 3051 3049 3048 3046 3045